Wetbulb
42.63 38.20 35.32 38.20 39.12 38.56 37.15 35.06 35.06 39.48 43.39 40.77 41.24 41.79 44.36 47.19 48.22 48.73 50.11 51.02 52.68 53.92 56.12 63.61 72.63 73.10 72.86 72.78 72.40 72.75 72.04 72.57 71.47 71.30 70.38 70.86 70.44 71.60 71.62 71.80 71.83 71.87 71.97 71.70
39.27 35.10 40.60 41.68 40.51 38.21 37.34 34.78 34.25 38.73 42.39 41.50 40.98 40.59 44.39 46.93 47.56 48.68 49.82 51.31 52.40 54.18 56.17 64.58 71.69 71.94 71.46 71.54 69.98 71.60 71.74 71.80 70.87 71.15 71.80 71.54 71.30 71.59 71.97 72.17 72.98 72.86 72.30 72.55
36.55 39.03 41.72 39.57 37.98 36.17 36.44 34.60 34.44 34.76 39.59 41.91 40.11 38.41 41.73 46.23 49.13 50.23 50.36 51.67 53.65 54.18 55.20 64.22 69.28 70.38 70.89 69.41 69.01 69.67 70.10 70.85 72.11 72.40 71.68 72.12 72.70 73.08 71.86 72.97 72.70 73.35 73.32 73.70
38.72 42.25 39.23 38.57 36.70 37.54 32.89 38.69 36.96 36.46 35.62 31.16 40.48 31.20 40.89 44.46 46.20 48.43 49.94 51.14 52.43 54.18 55.03 64.01 67.62 69.68 69.32 68.04 69.22 70.55 71.30 71.11 71.87 72.43 71.84 72.58 71.22 70.09 69.62 68.53 69.27 69.74 68.14 67.24
36.84 38.57 37.77 36.05 37.66 39.43 35.42 39.34 37.35 37.02 34.59 35.15 35.44 32.94 38.40 44.01 43.21 46.41 49.46 51.14 52.73 54.63 55.50 62.76 66.38 68.60 69.51 70.02 71.11 71.31 70.48 71.02 71.02 72.77 73.02 72.19 68.99 67.11 64.74 65.66 66.63 66.73 68.10 68.99
39.57 43.69 40.87 39.46 40.43 40.56 40.71 37.27 37.21 37.05 34.26 27.32 33.97 33.96 35.74 40.58 43.80 46.45 49.32 51.39 52.70 53.71 54.46 60.04 67.12 68.63 69.50 70.70 70.84 70.55 69.65 69.77 70.74 72.06 72.93 72.60 68.84 64.79 65.71 65.94 66.78 66.51 66.78 67.11
36.50 37.79 41.63 42.29 37.49 39.41 38.36 34.31 26.44 24.01 24.45 24.92 36.16 33.46 36.42 43.78 46.85 47.87 49.03 50.90 52.56 54.10 54.60 58.27 64.58 67.44 68.65 69.13 69.30 68.97 69.01 68.19 69.77 71.12 72.06 71.83 69.90 67.90 66.08 65.07 65.25 63.82 64.11 64.42
29.10 29.57 38.87 42.23 38.75 35.55 36.19 34.87 28.26 19.74 22.10 26.31 35.26 30.45 36.23 44.05 47.64 49.34 49.97 51.91 53.13 53.69 54.93 56.29 62.30 65.94 68.07 68.75 68.26 68.40 68.43 67.72 69.09 70.01 70.50 70.37 68.82 67.35 66.85 67.02 66.27 64.11 63.33 60.28
30.93 29.91 39.71 41.49 42.23 39.95 35.69 31.37 37.57 30.59 32.38 28.33 31.80 36.04 41.70 44.74 45.35 48.19 49.46 50.95 51.99 53.55 54.51 55.75 60.95 64.84 67.14 67.69 67.80 68.33 67.77 68.41 68.95 69.20 69.61 68.99 67.70 67.16 67.00 67.25 66.89 64.75 58.00 57.32
35.83 29.87 37.59 40.22 41.77 41.45 38.25 40.45 29.93 31.07 22.64 21.73 29.53 31.32 33.78 40.64 43.09 46.13 48.54 50.48 52.06 53.35 53.82 55.09 59.50 63.96 66.84 67.07 67.99 68.63 66.74 64.83 65.93 67.37 68.15 67.60 69.26 67.17 65.44 61.15 59.21 57.01 55.63 54.26
35.26 34.31 33.52 36.82 35.43 34.92 35.48 34.42 35.34 33.75 32.96 26.36 26.65 31.20 41.12 42.82 45.91 46.05 48.46 51.25 52.09 51.61 52.98 54.79 59.58 63.84 66.07 67.10 67.51 63.79 62.34 62.89 62.46 62.17 61.60 60.72 60.50 59.95 59.58 57.60 55.59 54.38 53.91 52.65
37.89 34.72 30.23 32.90 38.98 40.99 38.09 35.38 36.81 30.38 29.00 33.25 32.85 34.55 46.65 44.79 47.48 50.59 49.83 51.52 52.85 51.68 55.72 58.71 63.09 64.83 64.80 62.85 61.78 60.42 60.61 59.32 58.93 58.88 57.77 56.75 58.87 58.75 57.86 53.94 52.28 51.86 50.80 51.21
36.66 33.66 28.82 30.90 35.81 37.91 36.02 36.76 37.76 37.81 37.30 31.81 29.63 35.68 49.81 52.03 49.71 52.43 53.31 54.56 51.64 56.21 60.99 62.91 61.99 60.16 59.34 58.88 58.54 57.37 57.59 55.63 55.96 55.83 55.55 54.35 54.80 55.66 53.81 50.29 49.62 50.47 51.90 51.86
39.49 33.18 30.63 27.62 32.17 36.04 33.98 36.63 37.19 36.48 32.34 32.62 33.67 36.39 43.48 48.95 50.88 54.12 55.34 54.71 57.48 59.20 60.65 59.34 57.58 57.34 57.36 56.56 54.72 53.84 53.89 55.60 56.20 55.76 55.36 53.54 51.86 50.60 49.80 50.89 51.03 50.35 51.99 51.08
34.53 31.71 33.79 34.89 35.71 34.83 35.76 34.75 37.11 36.09 36.82 32.74 34.37 33.88 42.29 46.51 49.80 54.92 55.58 57.14 57.48 58.24 57.01 55.86 55.09 54.74 54.03 53.43 53.42 53.50 53.90 54.49 55.25 54.93 54.22 52.97 53.15 52.11 50.75 50.45 51.32 51.62 51.09 50.33
34.99 32.60 35.02 32.69 35.14 35.87 34.83 35.64 35.81 37.83 38.05 37.86 38.46 36.77 46.15 49.30 50.67 56.27 56.56 56.73 55.91 55.29 54.55 54.35 54.15 53.58 52.67 52.37 51.92 52.11 52.35 52.64 53.43 52.28 52.15 52.56 51.79 52.02 51.12 50.19 49.23 50.54 50.02 49.86
32.09 33.00 32.10 28.75 35.91 34.76 29.47 35.61 36.09 38.39 40.08 40.26 36.61 40.91 45.89 46.56 49.42 52.87 54.87 54.87 53.84 52.99 53.29 52.62 52.02 51.51 50.77 50.66 51.27 50.17 50.92 50.65 49.91 50.08 50.43 51.30 51.35 50.39 49.64 49.29 50.21 49.70 49.08 49.29
31.91 31.91 33.67 30.54 34.06 26.33 37.55 43.06 41.55 40.37 41.98 43.63 44.40 45.03 44.51 44.85 45.49 48.85 52.36 51.33 51.31 51.43 50.50 50.58 50.11 49.44 49.89 50.53 50.74 50.50 49.83 48.69 48.58 48.48 49.67 50.06 49.82 49.19 50.09 49.50 48.64 48.54 48.34 47.93
38.17 33.54 32.35 31.36 32.00 35.01 38.29 40.26 39.70 39.71 39.54 45.95 44.17 45.12 44.49 45.88 46.19 43.82 48.03 48.45 47.64 47.96 48.44 48.48 48.52 48.63 48.72 48.87 50.28 49.36 47.77 47.68 48.04 48.47 48.50 48.87 49.50 49.14 48.85 48.06 47.97 48.06 47.61 46.51
38.07 37.02 32.74 34.55 29.93 28.54 35.89 41.14 43.81 46.76 36.77 45.74 46.08 45.63 47.18 47.17 40.29 41.58 46.99 46.78 46.98 46.98 47.24 47.14 48.12 48.09 48.16 48.66 49.91 49.92 47.44 47.42 47.17 47.40 47.29 48.24 48.50 48.18 47.02 46.83 46.46 46.79 46.77 45.79
31.78 31.49 31.14 31.90 33.52 36.66 37.89 39.75 46.02 35.89 38.46 48.05 47.28 48.58 48.63 44.61 45.19 44.86 46.36 45.91 46.39 46.26 46.23 47.40 47.29 46.62 46.64 47.44 47.68 46.60 46.31 45.08 45.82 45.77 45.56 45.51 45.83 45.64 45.81 45.57 45.65 45.36 45.07 44.94
30.81 28.96 28.59 31.66 30.10 26.65 38.43 39.88 40.42 44.53 49.33 47.04 47.79 46.88 44.73 44.96 45.23 44.83 44.64 44.17 43.97 43.98 44.54 45.10 44.28 45.09 45.04 45.03 45.62 44.13 43.14 44.41 44.48 43.97 43.39 43.81 44.26 43.75 43.98 43.85 43.82 44.16 44.58 43.99
30.79 31.86 28.35 32.11 31.90 35.72 38.63 42.32 44.93 47.19 45.90 45.88 45.93 46.11 44.96 44.15 43.20 42.80 43.24 43.78 43.07 43.51 43.51 44.38 43.75 42.93 43.53 43.95 43.94 41.90 42.42 43.39 42.93 42.21 41.60 41.64 41.97 42.21 43.34 43.13 42.60 42.06 42.55 42.08
34.38 35.02 33.16 33.34 35.40 37.08 40.39 41.59 42.58 43.75 44.55 45.96 46.33 44.86 43.94 41.51 42.65 43.20 43.44 43.28 43.50 43.05 42.61 43.12 42.69 41.41 40.56 41.73 41.85 42.20 42.46 42.28 41.01 39.97 40.29 40.85 40.82 40.96 41.37 41.42 41.62 41.50 41.59 41.18
34.05 33.96 31.73 34.31 36.05 38.02 38.74 40.78 40.99 41.52 42.89 42.99 44.09 43.91 42.98 42.15 41.66 41.94 41.10 41.79 42.48 42.41 43.38 43.46 42.22 41.09 40.13 40.84 40.66 41.71 42.02 42.18 40.78 40.61 40.55 41.12 41.03 40.98 40.31 40.38 41.07 40.39 39.77 39.67
33.16 31.36 31.11 30.38 36.42 36.81 36.42 41.12 41.04 40.16 39.96 41.19 40.92 40.74 42.30 42.00 41.25 41.86 41.76 41.94 42.49 43.03 42.97 42.38 41.98 41.28 40.93 40.97 41.18 41.43 42.12 42.54 41.82 40.84 41.01 40.87 40.98 40.87 41.17 40.31 38.77 36.32 36.67 36.15
MSLP
1009.50 1009.46 1008.42 1008.11 1008.11 1007.88 1007.83 1007.43 1006.46 1005.94 1005.49 1005.26 1003.69 1003.01 1002.38 1001.83 1001.21 1000.86 1000.30 1000.06 999.86 999.66 999.93 1000.02 1000.39 1001.20 1002.26 1003.44 1004.62 1005.56 1006.23 1006.67 1007.34 1007.95 1008.62 1008.82 1008.97 1009.74 1010.21 1010.98 1011.72 1012.25 1012.59 1012.98
1009.09 1008.07 1007.60 1007.78 1007.83 1007.80 1007.63 1007.17 1006.56 1006.25 1005.64 1005.31 1003.94 1002.99 1002.44 1001.67 1000.60 1000.23 999.95 999.65 999.36 999.10 999.60 999.98 1000.41 1001.31 1002.28 1003.46 1004.64 1005.83 1006.60 1006.71 1007.31 1007.43 1007.88 1008.63 1009.04 1009.81 1010.54 1011.29 1011.73 1012.23 1012.58 1013.01
1008.08 1006.95 1007.15 1007.16 1007.25 1007.23 1006.87 1006.34 1006.23 1006.14 1005.43 1004.84 1004.21 1001.92 1001.30 1000.71 1000.31 999.67 999.15 999.10 998.80 998.60 998.88 999.52 1000.24 1001.21 1002.04 1003.13 1003.91 1004.80 1006.38 1006.74 1006.60 1007.45 1008.11 1008.90 1009.35 1009.93 1010.73 1011.36 1012.01 1012.22 1012.36 1012.75
1007.48 1006.58 1006.65 1006.51 1006.31 1006.39 1005.71 1006.36 1006.47 1006.21 1005.55 1004.22 1003.84 1001.16 999.98 999.59 999.29 998.73 998.25 998.04 997.85 998.13 998.71 999.25 1000.05 1000.96 1001.47 1001.26 1001.73 1004.41 1005.88 1006.15 1007.20 1007.38 1008.04 1008.64 1009.28 1010.27 1011.37 1012.16 1012.64 1012.91 1013.22 1013.94
1006.89 1006.44 1006.25 1005.80 1005.35 1005.88 1005.54 1005.90 1006.03 1006.02 1005.72 1004.69 1003.74 1002.61 999.86 999.54 998.24 997.49 997.24 996.90 996.96 997.54 998.13 998.76 999.66 1000.80 1001.12 1002.03 1003.09 1004.70 1005.63 1006.36 1007.09 1007.71 1007.95 1008.93 1009.98 1011.10 1012.26 1013.00 1013.29 1013.63 1013.86 1014.01
1006.80 1006.53 1006.34 1005.60 1005.39 1005.55 1005.75 1006.09 1005.79 1005.91 1005.69 1004.47 1002.89 1002.04 999.15 998.50 997.09 996.42 996.12 996.61 996.67 997.08 997.78 998.45 999.36 1000.41 1001.50 1002.42 1003.44 1004.36 1005.38 1006.11 1007.04 1007.55 1008.08 1009.07 1010.08 1011.49 1012.54 1013.33 1013.82 1014.39 1014.61 1014.62
1006.55 1005.82 1005.65 1005.61 1005.46 1005.44 1005.79 1005.87 1005.57 1005.65 1004.97 1003.53 1002.26 1001.60 999.04 997.79 997.30 996.50 995.83 996.15 996.54 996.82 997.26 997.91 999.01 999.94 1000.88 1002.00 1003.36 1004.40 1005.03 1006.18 1006.96 1007.63 1008.38 1009.32 1010.32 1011.57 1012.35 1013.13 1013.84 1014.34 1014.65 1015.23
1007.15 1005.73 1005.11 1004.69 1004.59 1004.54 1004.99 1005.15 1004.44 1004.01 1003.50 1002.66 1002.24 999.84 997.76 997.66 997.44 996.90 996.38 995.91 996.24 996.59 996.85 997.28 997.92 998.88 1000.27 1001.71 1002.78 1003.88 1005.09 1006.28 1007.06 1007.85 1008.75 1009.65 1010.60 1011.63 1011.88 1012.21 1012.16 1012.58 1013.68 1014.79
1007.49 1006.29 1005.02 1004.77 1004.37 1004.70 1004.55 1004.86 1004.58 1004.11 1003.01 1002.09 1000.88 999.18 997.78 997.49 996.97 996.37 995.99 995.82 995.75 996.03 996.46 997.07 997.85 998.80 999.89 1001.36 1002.59 1003.76 1005.05 1006.08 1006.98 1007.92 1008.88 1009.88 1010.69 1011.41 1011.68 1012.21 1013.08 1013.92 1013.58 1014.19
1008.03 1006.72 1005.10 1004.80 1004.69 1004.58 1004.23 1004.29 1004.93 1004.90 1003.09 1001.28 999.58 997.48 996.34 995.93 995.81 995.82 995.60 995.28 995.45 996.00 996.52 997.28 998.14 999.18 1000.58 1001.97 1003.15 1004.31 1005.63 1006.71 1007.60 1008.42 1009.19 1010.16 1010.87 1011.80 1012.62 1013.56 1013.92 1014.69 1015.40 1015.65
1008.86 1007.63 1005.58 1005.18 1004.54 1003.77 1004.20 1003.93 1004.02 1004.33 1003.01 1000.70 998.38 996.31 995.47 995.63 995.45 995.15 995.17 995.18 995.63 996.31 996.69 997.48 998.60 999.94 1001.24 1002.48 1003.68 1005.10 1006.31 1007.33 1008.43 1009.35 1010.29 1011.01 1011.83 1012.78 1013.72 1014.50 1014.97 1015.77 1016.17 1016.69
1008.40 1007.39 1005.65 1004.16 1003.69 1003.73 1003.97 1003.58 1003.21 1002.53 1001.89 1000.62 999.21 996.77 995.75 995.22 995.45 995.50 994.92 995.14 996.06 996.62 997.30 998.10 999.25 1000.44 1001.87 1003.43 1004.73 1005.83 1007.19 1008.23 1009.22 1010.13 1010.97 1011.81 1012.78 1013.67 1014.67 1015.08 1015.93 1016.63 1017.00 1017.47
1008.39 1007.28 1005.65 1003.81 1003.88 1003.73 1003.73 1003.81 1003.13 1002.41 1001.66 1000.42 999.68 997.65 996.97 996.08 995.64 995.76 995.58 995.93 996.62 996.95 997.95 999.20 1000.72 1002.03 1003.26 1004.53 1005.63 1006.96 1008.17 1009.03 1010.02 1010.63 1011.76 1012.81 1013.78 1014.64 1015.50 1016.08 1016.68 1017.35 1017.76 1018.18
1008.01 1006.74 1005.92 1004.32 1003.40 1003.77 1003.43 1002.82 1002.75 1002.09 1001.30 1000.38 999.89 999.40 998.51 997.26 996.23 996.10 996.30 996.62 997.08 997.87 998.83 1000.34 1001.92 1003.16 1004.31 1005.54 1006.65 1007.98 1009.17 1010.12 1010.57 1011.38 1012.52 1013.56 1014.56 1015.39 1016.11 1016.72 1017.39 1017.91 1018.20 1018.52
1007.52 1006.23 1005.26 1004.05 1003.44 1003.56 1003.24 1002.74 1001.89 1001.11 1001.05 1000.35 1000.28 1000.55 999.45 998.80 997.88 996.91 997.03 997.33 998.06 999.08 1000.15 1001.40 1002.94 1004.23 1005.40 1006.58 1007.76 1009.00 1010.08 1010.84 1011.21 1012.26 1013.40 1014.53 1015.40 1016.28 1016.91 1017.57 1018.19 1018.57 1018.94 1019.38
1007.25 1006.05 1004.94 1003.54 1002.69 1002.49 1002.28 1001.99 1001.62 1000.51 1000.31 1000.26 1000.40 1000.79 1000.78 999.61 998.62 997.77 997.84 998.21 999.26 1000.37 1001.55 1002.89 1004.26 1005.30 1006.40 1007.49 1008.57 1009.73 1010.63 1011.46 1012.22 1013.34 1014.41 1015.40 1016.30 1017.10 1017.78 1018.53 1019.01 1019.21 1019.65 1019.99
1007.02 1006.17 1004.93 1003.26 1001.82 1001.69 1001.56 1000.42 1000.32 1000.07 999.89 1000.01 1000.21 1001.31 1001.07 1000.34 999.60 999.29 999.21 999.93 1000.74 1001.72 1002.78 1004.02 1005.31 1006.26 1007.44 1008.41 1009.29 1010.25 1011.23 1012.35 1013.33 1014.36 1015.46 1016.24 1016.95 1017.70 1018.51 1018.96 1019.38 1019.99 1020.42 1020.67
1006.57 1005.96 1005.04 1003.50 1002.38 1001.30 1000.09 999.22 999.44 999.58 999.45 999.90 1000.14 1001.03 1002.10 1002.05 1001.43 1001.22 1001.06 1001.72 1002.78 1003.49 1004.29 1005.54 1006.51 1007.63 1008.75 1009.49 1010.39 1011.16 1012.40 1013.33 1014.31 1015.34 1016.12 1016.90 1017.53 1018.31 1018.84 1019.22 1019.95 1020.65 1020.85 1021.08
1006.11 1005.61 1004.56 1003.28 1001.97 1001.19 1000.23 1000.52 1000.44 999.65 1000.10 1000.14 1000.84 1001.65 1002.74 1002.77 1002.47 1003.64 1003.65 1003.65 1004.81 1005.42 1006.11 1007.01 1007.94 1008.83 1009.78 1010.85 1011.63 1012.14 1013.35 1014.32 1015.05 1016.22 1017.08 1017.81 1018.36 1018.96 1019.26 1019.92 1020.60 1021.17 1021.34 1021.84
1005.82 1005.20 1004.95 1003.47 1002.40 1001.94 1002.57 1001.96 1001.42 999.97 1000.61 1001.02 1001.29 1002.01 1002.77 1003.08 1003.93 1005.68 1005.67 1005.31 1006.43 1007.09 1007.83 1008.31 1009.21 1010.19 1011.11 1012.32 1012.71 1012.99 1014.23 1015.32 1016.36 1017.43 1018.19 1018.70 1019.18 1019.70 1020.09 1020.79 1021.39 1022.03 1022.18 1022.41
1006.08 1005.83 1005.25 1004.19 1003.53 1003.63 1004.00 1003.03 1001.31 1000.86 1001.23 1001.32 1002.03 1002.80 1003.19 1004.07 1005.27 1006.35 1006.87 1007.15 1007.37 1008.33 1009.20 1009.88 1010.43 1011.52 1012.73 1013.57 1013.94 1014.46 1015.69 1016.82 1017.81 1018.62 1019.35 1019.71 1020.34 1020.68 1021.20 1021.91 1022.23 1022.55 1022.65 1022.73
1008.51 1007.95 1007.29 1006.57 1006.15 1006.14 1004.91 1003.90 1002.68 1002.80 1001.92 1002.27 1003.49 1004.54 1004.59 1004.98 1006.37 1007.43 1008.06 1008.34 1008.54 1009.39 1010.42 1011.36 1011.77 1013.16 1014.29 1014.98 1015.08 1015.95 1017.13 1018.40 1019.00 1019.71 1020.22 1020.75 1021.22 1021.57 1022.18 1022.53 1022.84 1023.02 1022.99 1023.11
1009.60 1010.30 1009.82 1009.23 1008.99 1008.23 1006.75 1005.89 1004.73 1003.90 1003.68 1003.81 1004.05 1005.19 1006.20 1006.47 1007.46 1008.70 1009.34 1009.78 1009.98 1010.40 1011.57 1012.77 1013.35 1014.42 1015.61 1016.36 1016.65 1017.00 1018.65 1019.29 1019.91 1020.56 1021.15 1021.56 1022.01 1022.50 1022.85 1022.99 1023.24 1023.32 1023.50 1023.60
1010.50 1010.95 1010.36 1009.76 1009.27 1008.44 1007.53 1007.01 1006.19 1005.54 1005.28 1005.54 1006.00 1006.46 1007.24 1007.60 1008.93 1009.91 1010.63 1011.04 1011.10 1012.13 1012.76 1013.85 1014.51 1015.64 1016.66 1017.54 1017.97 1018.42 1019.40 1020.18 1020.66 1021.00 1021.63 1022.16 1022.57 1023.14 1023.60 1023.77 1024.04 1024.16 1024.21 1024.19
1012.51 1011.77 1011.21 1010.44 1010.03 1009.23 1008.88 1008.45 1008.06 1007.51 1007.13 1007.18 1007.66 1008.14 1008.37 1007.65 1010.44 1010.89 1011.51 1011.99 1012.68 1013.19 1014.15 1014.97 1015.72 1016.65 1017.67 1018.36 1018.88 1019.69 1020.32 1020.64 1020.99 1021.59 1022.26 1022.80 1023.30 1023.73 1024.24 1024.80 1025.29 1025.37 1025.74 1025.60
1013.25 1012.93 1012.34 1011.55 1010.89 1010.76 1010.66 1010.14 1009.76 1009.11 1008.94 1009.00 1008.99 1009.73 1010.22 1010.29 1011.64 1011.78 1012.57 1013.45 1013.72 1014.38 1015.42 1016.17 1016.81 1017.69 1018.58 1019.14 1019.85 1020.61 1021.06 1021.28 1021.45 1022.09 1022.83 1023.35 1023.66 1024.20 1024.71 1025.19 1026.23 1027.26 1027.34 1027.31
Wind_Speed
6 8 14 19 20 19 18 17 18 10 9 9 13 15 18 19 18 17 12 16 14 13 6 12 19 19 16 15 16 16 16 15 12 10 9 7 8 6 6 4 4 4 3 4
6 17 19 18 19 20 20 20 21 18 17 12 15 13 14 13 17 20 18 15 16 16 9 12 16 16 17 15 9 10 13 14 11 10 7 4 7 4 3 4 4 4 5 4
16 17 7 11 18 19 21 22 19 17 14 17 16 23 20 17 17 18 19 18 17 15 13 13 18 18 18 18 15 12 15 15 14 11 9 5 7 6 6 6 5 3 5 6
13 13 12 16 18 20 21 17 17 16 14 14 8 9 9 16 17 18 17 18 19 14 11 11 17 18 18 19 16 16 14 15 12 13 10 10 7 7 6 8 8 8 11 12
8 9 13 13 19 17 16 12 17 17 14 14 16 9 14 9 19 21 20 21 20 14 12 13 16 19 18 16 17 14 13 14 12 12 12 10 13 11 8 8 12 11 9 9
21 12 10 14 6 12 8 9 15 14 12 13 18 16 11 13 19 22 21 17 18 14 11 13 12 15 19 16 15 14 15 13 14 13 14 16 16 14 11 9 9 6 6 5
11 7 6 13 8 4 13 9 6 8 9 10 13 14 18 11 11 10 18 16 16 14 12 13 16 16 17 18 17 15 15 15 16 16 15 17 18 16 16 10 9 9 6 4
4 2 7 10 13 6 18 14 5 7 9 14 12 12 19 26 20 11 7 16 15 15 14 13 13 14 17 18 16 16 16 17 17 17 18 17 18 11 11 13 13 9 8 9
4 6 3 7 8 13 10 14 13 7 11 10 11 23 15 12 17 14 15 12 16 18 17 16 14 13 12 14 14 16 17 17 16 17 15 16 15 16 13 12 8 7 9 12
3 8 4 4 3 12 10 11 7 5 6 11 12 25 15 15 20 20 14 13 15 17 17 14 13 12 11 13 15 16 16 15 16 13 13 11 14 10 9 9 11 13 10 12
3 6 2 2 6 12 9 12 8 7 7 9 10 10 17 16 5 20 19 15 10 13 16 14 13 13 15 16 16 16 15 16 14 13 13 13 12 13 12 12 11 11 12 9
6 4 6 9 1 8 15 14 15 7 12 7 8 3 2 21 14 9 16 15 7 13 14 15 16 16 16 16 16 16 15 16 14 14 14 14 14 15 14 14 13 10 11 9
2 4 5 4 4 7 5 13 17 10 5 12 8 2 8 5 12 9 10 7 11 18 19 19 16 16 17 17 17 16 16 17 15 17 16 15 14 16 15 14 12 10 12 11
8 6 11 12 2 2 4 12 20 19 8 9 9 12 9 7 8 6 5 10 16 20 23 18 16 16 16 16 17 17 16 16 17 18 19 18 15 14 13 14 13 11 11 11
3 6 11 18 18 12 9 4 16 18 18 9 2 12 11 13 10 4 10 18 21 19 20 19 18 17 18 18 17 17 17 17 18 20 19 18 17 16 15 13 13 12 11 10
2 3 2 8 13 14 10 11 10 17 16 10 9 10 6 14 13 10 16 19 20 19 20 20 20 20 19 19 19 18 18 18 20 19 19 18 17 16 15 14 12 12 11 11
3 3 3 4 7 8 7 15 14 11 13 10 8 3 7 6 10 8 14 16 18 19 20 20 19 18 18 18 19 19 19 20 17 18 16 16 16 16 14 13 13 12 11 10
4 2 2 3 2 3 6 5 17 13 12 9 8 12 6 4 14 13 16 18 15 17 20 19 17 18 18 19 19 20 20 18 18 17 17 16 16 15 14 14 13 11 10 10
7 2 3 3 2 5 10 10 7 11 3 10 10 10 9 7 16 14 10 21 16 16 17 17 18 19 19 18 18 20 19 17 18 18 16 15 14 14 14 14 12 10 10 10
7 3 2 2 3 6 6 14 16 7 6 9 9 13 10 7 7 4 8 20 21 19 17 19 20 19 19 16 16 21 20 19 18 16 15 14 14 14 14 12 11 9 9 9
7 6 8 6 3 5 13 22 12 4 3 18 13 9 8 5 8 11 12 16 22 20 21 19 19 18 17 16 17 21 20 19 16 16 14 14 13 13 13 11 9 9 9 10
6 7 6 6 8 5 19 18 3 6 10 13 10 11 15 19 17 13 14 18 22 23 21 19 20 17 15 15 17 21 20 16 16 15 15 14 13 10 9 11 10 9 9 9
3 4 4 5 2 9 16 5 8 4 11 10 14 16 20 19 18 14 14 16 19 22 19 17 18 19 17 16 16 21 17 16 16 16 15 14 14 12 11 11 10 9 9 8
6 6 2 3 5 13 13 13 14 13 14 14 16 16 18 22 18 18 14 14 18 17 19 17 21 21 19 17 17 18 17 16 16 17 16 14 14 14 12 10 10 9 9 9
4 10 7 3 5 7 14 14 13 14 16 18 17 17 16 24 15 17 16 16 16 18 18 18 19 19 19 17 17 16 15 16 17 16 15 14 13 14 13 12 10 11 12 10
5 4 5 3 8 5 5 11 14 16 15 16 21 20 17 19 17 20 16 14 16 19 18 18 20 19 18 17 17 15 15 15 17 16 12 11 11 10 10 11 13 19 16 17
Wind_Direction
195 225 235 237 228 246 258 256 252 223 228 312 252 257 250 257 262 253 240 238 235 242 248 211 193 189 175 169 174 186 185 179 169 173 177 187 183 175 183 186 184 201 207 181
240 249 257 258 241 238 243 249 250 257 266 263 274 270 267 251 251 245 244 240 240 241 221 191 183 163 158 162 161 184 199 180 181 178 160 179 154 165 144 119 115 142 154 145
261 259 265 239 234 232 234 237 241 243 242 261 270 279 255 240 237 246 237 238 240 231 211 185 171 168 163 163 165 164 207 193 181 173 146 100 115 100 117 99 79 119 147 134
270 260 249 249 237 223 236 230 237 242 234 244 230 274 211 217 217 224 231 228 231 222 207 193 176 172 174 161 173 188 190 176 177 162 147 115 111 102 80 87 84 75 76 77
263 277 270 251 236 223 244 231 223 231 251 249 233 252 253 254 214 216 217 220 225 219 204 190 181 173 187 175 177 175 176 175 151 151 137 109 102 96 95 88 82 77 78 77
261 275 263 237 249 230 241 239 222 227 229 248 230 227 234 221 215 216 218 214 221 217 205 201 185 174 176 177 176 174 168 141 145 137 121 116 117 113 105 99 100 95 93 86
310 238 222 226 246 201 177 178 185 206 210 246 203 221 237 202 238 257 221 204 208 210 200 199 174 170 172 170 166 162 143 138 141 133 120 121 118 123 118 124 128 137 133 88
307 288 199 189 216 201 196 194 202 200 198 222 219 228 233 232 247 270 305 215 198 203 200 202 192 181 166 156 151 143 140 140 138 129 120 120 126 131 133 145 164 151 136 91
281 251 242 249 256 221 181 210 221 305 233 221 209 238 264 247 232 240 241 227 203 199 197 196 189 187 158 146 145 139 134 134 136 134 136 132 137 140 147 150 118 93 107 105
306 278 247 54 211 245 236 169 181 216 225 225 203 234 224 193 217 226 235 227 202 193 192 189 186 171 140 137 134 129 119 117 125 129 133 138 145 118 115 90 95 91 85 94
245 235 213 237 208 202 183 206 209 165 258 230 229 235 210 218 234 212 229 231 195 189 185 176 167 149 136 133 125 111 107 109 106 103 107 102 98 97 104 103 91 93 89 82
205 279 253 257 282 193 221 220 206 218 204 244 281 312 309 205 202 216 228 214 142 167 171 157 145 132 128 118 114 108 107 105 106 109 103 100 108 116 114 101 93 90 89 82
228 238 284 244 161 201 198 211 226 240 270 238 256 14 4 209 187 214 213 177 145 151 147 137 123 126 125 117 108 107 110 108 112 109 109 105 105 111 105 97 89 90 98 94
227 210 224 256 333 88 252 193 208 219 230 225 242 312 352 4 175 191 174 153 144 149 144 121 114 113 111 108 108 109 107 114 116 112 113 109 104 101 96 97 94 89 86 84
217 247 220 246 261 253 259 231 221 205 223 229 276 262 347 329 319 228 148 146 148 135 126 120 120 117 113 110 109 110 111 112 111 111 108 105 104 103 99 99 100 97 89 87
234 278 290 263 260 233 220 239 237 223 220 242 232 262 313 308 281 179 148 144 136 128 121 122 121 118 115 117 115 114 111 107 108 106 106 109 109 107 105 103 103 97 94 90
264 284 290 279 295 160 220 219 203 195 206 216 217 186 14 343 47 91 117 121 124 123 124 121 119 115 115 116 117 110 109 107 102 105 109 110 111 109 109 110 101 95 92 89
279 222 250 293 230 165 11 268 189 193 191 193 102 93 80 30 63 46 100 99 106 113 113 111 111 109 109 109 109 109 107 104 104 105 108 110 109 111 109 100 95 92 89 80
296 226 261 278 277 157 73 65 160 193 121 146 120 118 134 130 80 41 63 93 90 98 99 102 103 107 104 105 109 106 103 101 102 104 106 110 112 112 106 100 96 92 92 87
330 241 264 260 6 60 7 347 337 198 140 147 154 166 163 144 104 92 86 106 102 94 96 103 103 101 99 103 108 105 102 102 102 105 106 107 108 106 101 99 94 94 96 93
343 350 12 0 37 89 355 335 304 216 70 156 157 139 149 90 98 107 108 99 101 102 101 98 97 96 98 102 104 102 102 99 103 102 101 97 98 96 96 98 95 96 92 90
346 331 358 347 18 356 341 333 11 6 115 114 124 108 107 112 104 99 102 106 106 103 100 97 98 96 96 99 105 102 99 105 103 102 99 97 94 92 95 95 93 91 93 88
21 27 302 1 9 269 287 342 1 60 95 106 106 113 115 104 98 91 96 102 100 100 99 101 100 100 98 98 103 105 108 110 107 104 100 95 93 90 90 91 90 86 77 75
352 33 331 276 1 349 11 40 48 64 85 98 108 108 109 97 98 98 97 101 99 101 100 105 103 100 99 99 99 102 110 111 107 102 99 97 93 92 85 79 74 75 71 69
349 312 322 342 338 338 19 42 56 66 80 86 89 98 104 99 95 101 87 89 98 98 101 103 103 101 99 99 96 102 110 112 105 103 102 100 97 92 86 72 68 74 53 40
339 336 344 336 313 55 26 60 65 73 76 87 95 85 87 98 108 97 78 85 93 99 102 99 97 101 102 100 101 105 110 111 110 107 105 100 100 98 99 93 83 62 71 66